User: anonymous   Login
Location: Unspecified
(0.0000°N, 0.0000°E)
Time: 04:27:07
(UTC+00:00)
Language:

LilacSat-2 - Orbit

View from above orbital plane
View from above orbital plane
View from above satellite
View from above satellite

Ground track
Ground track

The orbit data is extracted from the following two-line orbital elements,

1 40908U 15049K   19146.72183450  .00000347  00000-0  22827-4 0  9990
2 40908  97.4781 147.7524 0014243 284.3526 162.0693 15.13784416203331
Epoch (UTC): 26 May 2019 17:19:26
Eccentricity: 0.0014243
inclination: 97.4781°
perigee height: 515 km
apogee height: 534 km
right ascension of ascending node: 147.7524°
argument of perigee: 284.3526°
revolutions per day: 15.13784416
mean anomaly at epoch: 162.0693°
orbit number at epoch: 20333

The dashed part of the orbit path shows where the satellite is in the earth's shadow,  

DLR